Wind_Speed
67 67 66 66 67 71 73 71 68 67 66 64 63 62 62 60 58 55 51 49 44 38 34 34 34 31 30 28 25 23 22 20 18 17 16 14 12 10 8 8 9 8 8 7 7 7 8 11 12 14 16 17 17 16 15 15 14 14 14 15 16 18 20 20 19 17 17 20 22 23 24 24 24 24 24 24 25 26 26 26 26 27 29 30 31 31
68 67 67 68 70 72 72 71 70 70 69 67 65 64 63 63 61 58 55 51 46 42 37 33 32 31 30 29 26 27 26 24 22 19 18 16 12 11 9 9 11 10 9 8 7 6 6 8 11 11 12 14 16 17 16 14 14 13 13 13 15 16 18 19 20 19 18 18 20 22 23 24 24 24 24 24 25 25 25 25 25 26 27 28 29 30
69 69 69 70 72 72 71 72 73 72 71 69 67 66 64 64 63 61 59 54 49 46 40 34 32 30 29 28 27 30 31 29 26 22 19 17 14 12 10 10 12 11 10 10 8 6 5 6 8 9 9 11 13 15 16 15 14 13 12 12 13 14 16 17 19 20 19 19 19 21 22 24 25 25 25 25 25 25 25 25 25 26 26 27 28 29
72 72 72 71 73 73 71 72 75 74 72 70 69 68 66 65 65 64 62 58 54 50 43 39 37 32 28 29 31 32 32 31 29 24 21 19 17 14 11 11 14 13 11 11 10 8 5 4 6 7 7 8 10 13 15 15 15 14 12 11 12 13 14 15 17 18 19 19 19 20 22 23 25 25 25 25 25 25 25 25 25 25 26 26 26 27
76 75 74 73 75 74 72 72 75 76 74 72 71 71 69 67 67 66 64 62 58 52 46 43 42 36 29 31 35 33 30 30 29 26 23 21 18 14 12 13 15 15 13 12 11 10 7 4 4 5 5 6 7 9 12 14 14 14 13 11 11 11 12 13 14 16 17 18 19 20 21 23 24 25 25 26 26 25 25 26 26 25 25 25 25 26
79 77 75 75 75 75 74 73 74 76 76 75 73 73 71 69 67 67 67 65 61 54 50 47 45 39 33 33 36 33 30 31 30 27 24 23 20 16 14 15 17 16 14 13 12 11 9 7 4 3 3 4 5 6 8 10 12 13 13 12 11 10 10 11 12 13 15 16 18 19 20 21 22 24 25 26 26 25 25 25 25 26 26 26 26 26
81 79 77 76 76 76 75 74 74 76 77 77 76 74 73 71 69 69 68 67 63 55 51 51 47 41 37 34 33 32 32 33 32 28 26 24 22 18 15 17 18 17 15 14 14 13 12 10 7 4 3 2 3 3 5 7 9 10 12 12 11 10 9 9 10 11 12 14 15 17 19 20 21 22 24 25 25 25 25 25 25 25 26 26 26 27
82 80 78 77 77 76 75 74 74 75 77 79 78 76 75 75 73 71 69 68 65 57 52 51 48 45 43 38 34 32 34 34 32 30 29 26 24 22 20 19 18 17 16 16 16 16 15 13 10 7 5 3 2 1 2 5 6 8 9 10 11 10 9 8 8 9 10 11 13 15 17 18 20 21 22 23 24 24 25 24 24 25 25 25 26 26
82 81 80 79 78 77 76 75 75 76 77 79 81 79 78 78 76 73 70 69 67 63 57 51 48 48 48 46 41 36 35 35 33 32 31 28 26 25 24 21 19 18 18 18 18 18 18 16 13 10 8 6 4 3 2 3 5 6 6 8 9 9 8 8 7 7 8 9 10 12 14 16 18 19 20 21 22 23 24 24 24 24 24 24 24 25
82 82 82 81 79 79 78 78 77 77 77 79 81 81 81 81 79 75 72 70 69 68 64 56 51 50 51 51 48 43 39 36 34 33 32 32 30 28 26 25 22 19 20 20 19 20 20 18 17 14 11 9 7 5 4 4 5 6 6 6 6 7 7 7 7 6 7 7 8 9 11 13 15 17 19 19 20 21 22 23 23 23 24 23 23 24
82 83 83 83 82 82 81 79 78 77 77 78 79 81 83 84 82 79 75 73 71 71 68 62 57 54 53 53 50 47 44 38 34 33 33 34 33 31 30 30 27 21 21 22 21 21 22 21 20 18 15 12 9 8 7 6 6 7 7 7 5 5 5 6 6 6 6 6 6 7 8 10 12 14 16 17 19 20 21 21 22 22 23 23 22 22
84 83 83 83 84 85 83 81 79 78 79 79 79 81 85 85 84 82 78 75 73 72 71 67 64 58 55 55 51 47 45 42 38 36 35 34 34 33 32 32 30 25 24 25 23 22 24 24 22 21 19 15 12 10 9 8 8 8 8 8 7 6 4 4 5 5 5 5 5 5 6 7 9 11 13 15 16 17 18 20 20 21 22 22 22 22
86 85 84 84 85 86 84 83 81 80 81 82 80 81 84 85 85 83 79 77 75 74 73 71 69 64 59 57 54 51 48 44 41 39 37 35 34 34 34 34 32 28 27 27 25 24 25 26 25 24 23 18 15 13 12 11 11 11 11 10 10 8 6 4 4 5 5 4 4 4 4 5 6 8 10 12 13 15 16 17 18 19 20 20 21 21
87 87 86 86 86 86 85 84 82 82 82 81 81 81 81 83 84 84 82 80 78 76 74 73 73 71 68 62 59 57 54 50 46 42 39 37 36 35 35 35 33 28 28 29 27 25 24 27 28 27 26 23 18 16 15 15 15 14 13 13 12 11 9 6 4 4 4 4 4 3 4 3 3 5 7 9 10 12 13 15 16 17 18 19 19 20
88 88 88 88 87 86 85 85 84 82 81 81 82 81 80 81 83 84 84 82 81 78 76 74 73 73 73 69 65 61 57 53 51 48 43 42 40 39 38 37 33 29 29 30 29 27 25 27 29 29 28 26 22 19 19 19 19 17 15 15 15 13 11 9 6 5 5 5 4 4 4 3 2 2 4 6 7 9 10 12 14 15 16 16 17 18
87 88 88 88 87 86 86 86 85 84 83 82 82 81 80 81 81 83 86 86 83 80 78 76 74 73 72 70 67 65 61 55 53 51 47 44 43 41 40 40 36 31 32 32 30 29 28 28 31 32 31 29 25 22 21 21 21 19 17 16 16 15 13 11 9 7 6 6 6 5 5 4 3 2 2 3 4 6 7 9 11 12 13 14 15 16
87 88 88 88 87 87 88 88 87 85 85 84 83 82 81 80 79 82 87 87 84 81 79 78 77 75 73 69 64 65 64 60 55 53 49 46 44 42 40 40 37 34 35 34 31 30 30 30 32 34 33 29 26 23 22 21 20 19 18 17 16 16 15 14 12 10 8 7 7 7 6 5 5 4 3 3 3 3 5 6 8 9 11 12 13 14
87 87 87 87 88 89 90 90 88 87 87 86 84 84 83 81 80 82 85 84 83 82 80 80 79 77 75 71 66 64 65 62 57 53 50 47 46 44 42 41 40 38 37 34 31 31 32 32 31 33 33 29 24 22 21 20 19 19 18 16 16 17 16 16 15 13 11 9 8 8 7 6 6 5 5 4 4 4 4 4 6 7 8 10 11 12
87 86 86 87 89 90 90 89 89 90 89 88 86 85 84 83 82 82 83 82 82 81 80 80 81 79 76 73 70 69 67 63 59 54 50 47 46 46 45 46 45 42 37 34 34 35 35 34 32 33 34 30 24 21 20 19 20 20 18 16 16 17 17 18 18 17 15 12 10 9 8 6 5 5 5 5 6 6 5 5 5 6 6 7 8 10
87 86 86 88 90 90 90 89 90 91 91 90 88 87 85 84 83 83 82 81 81 81 81 81 82 82 79 75 72 70 67 63 59 57 51 45 45 48 48 50 51 46 40 38 38 38 36 33 33 33 35 32 27 23 20 20 22 22 19 18 18 18 19 19 19 19 18 16 13 12 10 7 5 5 5 6 6 7 7 6 6 6 6 6 7 8
88 88 88 88 89 90 90 90 90 91 91 91 91 90 88 86 85 84 83 83 82 81 81 82 84 84 81 77 73 68 66 64 59 58 56 49 46 50 51 52 54 51 46 42 39 40 40 35 34 37 38 37 33 26 22 24 28 26 23 21 19 19 19 19 20 20 20 17 15 13 12 9 7 5 4 5 6 7 8 8 8 8 7 7 7 7
91 91 89 88 87 88 89 89 90 90 91 91 92 91 91 90 88 86 87 86 84 82 80 81 83 84 80 78 76 69 66 68 65 60 61 56 51 53 53 52 52 51 51 48 40 39 41 39 38 41 42 41 38 31 25 26 31 31 26 22 19 18 20 21 21 22 22 19 16 14 13 10 7 6 5 5 6 7 8 9 9 9 9 8 8 7
92 92 91 88 87 88 89 90 91 92 92 92 93 93 93 93 91 89 89 87 86 84 82 81 82 84 81 79 80 75 68 69 71 67 65 63 59 57 56 55 52 50 52 52 45 40 40 40 39 42 44 44 41 36 28 26 30 32 27 22 20 19 20 22 22 23 24 22 19 15 14 11 8 7 6 6 6 7 8 9 10 11 11 10 10 9
92 92 91 89 88 89 90 91 93 94 93 92 93 94 95 94 93 92 90 88 87 86 85 82 81 83 83 82 83 81 74 70 72 73 71 69 64 59 58 60 60 58 57 54 48 40 37 37 36 38 42 43 41 38 33 28 30 31 27 26 28 26 22 21 22 23 24 24 21 18 17 15 11 8 8 8 8 9 9 10 11 11 12 12 12 11
93 92 91 91 90 89 89 91 92 93 92 93 94 95 96 95 95 94 91 89 87 86 85 84 81 81 83 84 84 85 83 77 75 76 77 76 72 65 62 63 66 66 63 60 54 43 37 37 38 38 41 41 39 38 35 31 31 32 31 31 32 29 24 22 23 24 24 24 23 20 19 18 15 13 10 10 10 10 11 12 12 13 13 13 13 13
92 92 92 92 91 89 88 89 91 92 93 95 96 97 96 96 96 94 91 89 87 85 84 83 82 80 81 83 83 84 86 85 81 81 80 79 78 74 69 67 67 68 66 64 61 56 48 44 42 44 48 48 43 38 35 33 32 34 34 31 28 27 25 23 24 25 25 24 24 23 21 19 17 17 15 15 14 13 13 14 14 15 15 14 15 15
91 92 92 93 92 90 88 87 89 90 92 95 98 98 97 97 97 95 91 90 87 85 84 83 83 81 79 81 83 83 85 86 86 86 84 81 81 79 75 71 69 70 70 67 65 64 60 53 47 45 47 49 46 42 38 36 34 35 37 36 33 31 29 26 26 27 27 27 28 27 24 20 18 19 20 19 18 15 13 14 16 17 17 17 16 16
90 91 91 92 92 91 88 86 87 89 90 93 97 98 97 97 98 95 93 92 90 86 84 83 82 81 80 81 82 84 84 83 84 87 88 86 83 82 80 76 71 69 71 71 70 67 63 60 56 52 47 46 46 44 41 37 34 36 39 40 38 36 34 31 29 29 29 29 30 31 28 24 21 22 21 20 18 15 12 14 16 19 21 21 19 18
88 90 90 91 91 91 89 88 88 90 91 94 97 97 97 97 96 95 94 93 91 88 86 85 83 81 81 81 82 84 84 82 84 87 89 88 87 85 84 83 79 74 71 71 74 72 67 62 60 58 52 48 47 45 42 38 36 37 41 43 40 37 36 35 33 32 32 33 34 34 32 27 25 24 22 21 19 16 14 15 18 20 24 26 24 21
86 88 89 90 90 90 89 89 90 91 92 95 97 97 97 96 96 95 94 93 92 90 88 86 84 83 82 82 82 83 85 85 87 90 91 90 90 89 87 87 86 83 78 74 74 75 72 66 62 59 55 51 49 45 43 43 41 39 40 42 41 39 36 35 34 34 35 36 36 36 34 30 27 26 23 22 21 18 16 18 20 22 24 27 28 26
85 87 88 89 89 88 89 91 91 91 92 94 96 97 97 97 97 96 96 95 93 92 90 88 86 84 83 84 85 85 85 86 88 91 92 91 90 90 90 88 87 87 85 81 77 75 73 69 65 61 57 53 51 46 44 46 46 42 39 39 40 40 39 38 38 37 38 40 40 38 36 33 30 29 26 24 23 22 21 21 23 24 24 26 29 30
86 87 87 88 88 88 89 91 92 92 92 93 94 96 97 97 97 97 97 97 96 94 93 91 89 88 86 85 86 87 87 86 87 90 91 90 89 89 90 89 88 87 87 86 84 81 77 73 69 65 61 58 55 51 49 51 51 48 45 42 40 42 42 42 41 40 39 42 43 41 40 38 35 33 32 30 28 28 29 28 27 27 25 24 26 29
88 88 88 86 86 87 89 90 92 93 92 92 95 97 97 96 96 97 97 97 97 97 97 95 94 93 91 88 87 87 88 89 89 90 91 91 90 89 88 88 88 88 88 88 87 86 83 80 76 71 67 65 62 59 57 57 58 56 54 50 46 46 47 45 44 41 38 39 41 41 43 42 39 37 37 35 33 34 36 35 32 30 29 28 27 30
89 89 88 87 86 88 89 90 91 92 92 93 95 97 98 97 96 96 97 98 98 99 99 98 97 96 95 93 91 89 90 91 92 92 91 91 91 91 90 88 87 88 89 88 87 87 86 84 81 78 75 72 70 68 66 65 64 63 62 56 51 53 55 52 50 47 45 45 46 45 45 44 42 41 41 41 41 41 41 42 40 38 36 34 33 33
88 88 88 88 88 89 90 90 90 90 91 92 93 95 98 97 94 96 98 98 99 100 100 100 99 99 98 97 96 94 92 92 92 93 93 92 92 91 92 91 89 89 89 89 88 87 87 86 84 82 82 80 78 76 74 73 71 70 69 64 58 57 60 60 59 57 54 53 53 51 49 48 46 44 42 42 46 50 51 50 48 46 42 40 39 37
89 88 88 89 89 90 90 90 90 90 91 91 91 93 96 96 94 94 97 98 99 100 100 101 100 100 100 99 99 98 95 93 92 92 94 94 93 92 92 93 93 92 92 91 91 90 89 89 89 86 85 86 86 83 81 80 79 77 76 73 67 61 61 63 65 65 63 62 62 60 59 58 56 52 46 40 40 48 55 56 52 49 46 44 43 41
92 90 89 90 91 91 91 90 91 90 89 90 91 91 93 95 95 95 96 98 100 100 100 101 102 102 102 101 101 99 98 95 93 92 93 94 94 94 94 94 94 94 94 93 92 92 92 92 92 91 89 89 90 90 87 85 84 83 82 81 77 71 68 67 69 71 72 73 73 72 70 68 66 65 60 49 38 38 46 52 52 50 49 48 46 43
95 93 91 90 91 92 91 90 91 90 90 90 91 90 91 93 95 97 97 98 99 100 101 103 104 104 104 104 103 101 100 98 96 94 93 93 95 96 96 96 96 95 95 95 94 94 93 93 93 93 93 92 91 91 91 89 87 87 87 86 85 83 80 79 79 79 80 80 80 79 77 74 73 72 69 62 53 46 45 48 50 51 50 50 48 45
96 96 94 92 91 91 91 90 90 91 91 92 91 90 89 90 93 97 99 99 99 99 101 103 104 104 105 105 104 103 102 101 100 97 95 93 94 97 99 99 99 98 97 96 96 95 95 94 94 93 94 94 93 92 92 91 90 90 90 90 89 88 87 87 87 86 86 85 85 85 83 81 80 78 73 70 69 66 62 60 59 56 54 53 50 46
93 97 97 95 93 91 91 90 91 91 91 91 91 91 91 91 92 95 98 100 99 98 100 102 103 104 105 105 105 105 105 104 103 101 98 96 96 98 101 102 102 102 100 99 97 97 96 96 95 95 95 96 95 94 93 92 92 92 92 92 91 90 89 88 88 88 88 89 88 88 88 87 85 83 79 76 75 74 73 69 65 62 60 57 52 49
85 92 96 97 96 94 93 91 91 91 91 91 92 92 93 93 92 93 96 100 100 99 99 101 103 104 106 106 107 107 108 108 107 104 102 101 101 102 103 103 104 103 102 101 100 99 98 97 96 96 95 96 97 97 95 95 94 94 94 93 93 92 91 89 88 88 88 89 90 90 91 90 88 87 85 82 79 77 75 72 68 64 62 59 54 51
74 82 89 95 97 96 95 93 92 92 92 93 93 94 94 94 94 95 96 98 99 101 101 101 103 105 106 107 108 109 110 110 109 108 107 106 106 106 106 105 105 104 102 102 102 101 100 100 99 98 97 97 98 99 99 98 97 97 97 97 96 95 94 92 90 90 89 89 90 91 91 90 89 88 87 86 83 80 78 75 71 67 64 61 58 54
64 71 79 86 92 95 96 95 94 93 93 94 95 95 95 95 96 97 97 98 99 101 102 102 103 105 106 107 108 109 110 111 111 111 111 110 109 109 108 108 107 105 104 103 103 103 103 102 102 101 101 100 100 100 100 100 100 99 99 99 100 99 98 96 94 93 92 92 92 92 92 91 90 88 87 87 85 83 81 77 73 69 66 64 62 60
56 62 68 76 83 89 93 96 96 96 96 96 97 98 97 97 97 98 99 100 100 101 102 104 105 105 106 107 108 109 111 112 113 113 113 113 112 112 112 111 110 109 108 106 105 105 105 105 104 104 104 104 103 102 101 101 101 101 101 101 101 101 101 101 100 98 96 95 95 94 94 93 92 90 89 89 88 86 84 81 77 73 70 68 67 66
50 55 60 66 73 79 85 90 94 97 98 99 99 100 100 100 100 100 101 102 102 102 102 104 105 106 107 108 109 110 111 112 113 114 115 115 116 116 115 115 114 113 112 111 109 108 107 107 107 106 106 106 105 105 105 104 103 103 103 103 103 102 102 103 103 103 102 101 100 99 97 96 95 94 93 93 92 91 89 88 85 81 76 72 71 71
47 50 54 59 65 70 75 81 87 92 96 99 100 101 101 101 101 101 102 102 103 103 103 103 105 107 108 109 111 111 112 112 113 114 115 117 118 118 119 118 118 117 116 115 114 113 111 110 109 108 108 107 107 108 108 107 107 106 106 105 105 104 104 104 104 104 104 104 103 102 101 100 99 98 97 96 95 95 94 93 91 88 83 78 75 74
44 48 51 54 59 63 67 72 77 83 89 94 98 101 102 103 104 104 104 105 105 104 104 105 106 107 109 111 112 113 113 113 114 114 115 116 118 119 120 121 120 120 120 120 119 118 116 114 112 111 110 109 110 110 110 110 109 109 108 108 107 106 106 106 106 105 105 105 105 105 104 104 103 102 101 100 99 99 98 97 96 93 89 84 80 78
42 46 48 51 54 58 61 65 69 74 80 86 91 96 101 104 106 106 106 106 106 106 106 107 107 109 110 112 113 113 114 114 115 115 116 116 117 119 120 121 122 122 122 123 123 122 120 119 116 115 114 113 113 112 112 111 110 110 110 110 110 110 109 108 107 107 107 107 106 106 106 106 105 105 105 104 104 104 102 100 98 96 94 90 86 83
39 42 44 48 51 54 57 61 64 68 72 77 83 88 94 99 103 106 107 107 108 108 108 108 109 110 111 112 113 114 114 114 115 117 118 118 118 119 120 121 122 123 124 125 126 125 124 122 120 119 119 118 117 115 114 113 112 112 112 112 112 112 112 111 110 110 109 108 108 107 107 107 107 107 106 106 106 106 104 103 101 99 97 95 92 89
35 37 41 45 48 51 54 58 61 63 67 71 75 80 86 91 97 101 104 107 108 108 109 109 109 109 111 112 113 113 114 115 116 117 118 120 120 120 121 121 122 123 125 126 127 127 126 125 125 124 123 122 121 119 117 116 115 114 114 114 113 113 113 113 113 113 112 111 110 109 109 108 108 108 108 107 106 106 105 104 103 102 100 98 96 94
33 35 38 42 45 48 52 55 58 61 64 67 71 75 79 84 89 93 97 101 105 107 108 109 109 109 110 111 112 113 114 114 116 117 118 119 120 121 122 122 123 124 125 127 128 128 128 128 128 127 126 125 124 123 122 121 119 118 116 115 115 115 114 114 115 115 115 115 114 112 111 110 110 110 110 109 108 107 106 106 106 104 103 102 100 98
Wind_Direction
210 211 211 211 212 212 211 210 209 209 209 210 212 212 209 206 207 209 211 209 205 203 203 204 205 207 209 211 214 214 211 212 209 199 196 205 218 221 209 185 175 162 148 141 126 103 81 73 71 70 71 72 72 74 79 83 83 80 72 64 62 62 64 66 65 63 59 55 54 54 53 52 51 50 49 48 50 51 51 50 50 50 51 51 51 51
210 211 211 211 212 213 211 209 209 210 209 210 211 212 210 208 209 212 215 213 209 208 207 205 207 210 212 215 219 220 215 209 209 210 203 200 212 226 220 194 184 178 162 156 149 130 98 80 74 69 69 70 71 72 75 79 82 82 77 70 65 64 65 67 69 69 66 61 58 58 58 57 56 54 53 51 51 52 53 53 52 52 52 53 53 52
212 212 211 211 213 213 211 210 210 211 210 210 211 212 212 211 211 214 216 215 213 213 209 206 209 212 214 214 216 218 217 214 214 217 210 200 206 221 222 201 191 189 177 168 165 157 134 96 83 72 67 68 69 71 72 74 77 78 77 71 67 64 63 65 68 70 70 67 62 60 60 60 60 59 56 54 54 53 54 55 54 53 53 54 54 54
214 213 211 211 213 213 211 210 211 211 211 210 211 212 212 212 212 214 215 215 216 215 209 207 208 209 211 210 210 211 212 216 219 221 218 206 202 213 223 211 198 195 189 179 174 173 172 133 99 79 67 67 68 70 71 72 74 74 74 71 67 64 62 62 64 67 68 68 63 60 59 59 60 60 58 57 56 55 55 56 57 56 56 55 55 55
215 214 212 211 213 213 211 211 211 211 211 211 212 212 212 213 214 214 214 215 216 215 211 209 208 205 207 209 210 209 207 212 218 219 218 207 199 207 216 210 200 197 195 189 184 185 194 192 131 98 77 72 69 67 70 71 71 72 72 70 68 65 63 62 63 63 64 65 63 60 58 58 58 59 59 59 58 57 57 57 58 59 59 58 57 57
215 215 213 212 213 213 211 211 212 212 211 211 212 213 212 213 214 215 215 215 215 216 214 211 208 203 203 209 214 214 207 208 214 214 210 203 198 201 211 210 202 197 198 195 191 192 200 202 172 131 105 87 78 63 63 69 71 72 72 70 68 65 62 62 64 64 63 63 62 61 59 58 57 58 59 58 58 58 58 58 58 60 61 61 60 60
215 215 214 214 213 213 211 211 212 212 211 211 212 213 213 213 215 215 215 215 214 215 215 212 209 200 197 206 213 213 209 208 210 208 203 203 200 197 209 218 209 201 201 200 196 196 202 207 195 172 165 126 103 72 51 57 64 67 70 70 68 64 59 59 62 65 64 63 62 61 60 59 57 57 57 58 58 58 58 59 58 60 61 61 61 61
216 215 215 215 214 213 212 212 213 213 212 211 212 213 214 214 215 215 215 216 214 213 212 209 208 202 197 204 209 208 209 208 206 205 204 208 205 197 203 215 218 215 208 203 201 199 202 210 207 193 194 203 180 124 31 32 43 54 63 67 66 62 56 53 56 61 63 64 63 62 62 61 59 58 57 58 58 58 58 58 58 59 59 60 61 61
216 215 215 216 215 214 212 211 213 213 212 212 211 212 214 215 216 215 214 215 214 214 212 206 205 205 202 208 212 207 205 206 205 204 204 208 209 203 201 206 217 227 220 207 205 204 204 209 211 202 197 213 230 236 277 339 4 23 40 55 62 61 55 50 50 53 58 63 63 62 62 62 62 60 59 59 58 58 58 58 57 58 58 58 59 60
216 215 215 216 216 215 213 212 212 213 213 212 212 212 214 215 216 216 214 215 214 214 214 209 204 205 207 212 216 211 206 204 205 205 204 208 209 204 203 204 206 221 229 215 206 208 208 209 212 208 203 213 230 239 252 294 326 345 358 21 45 54 52 47 44 46 51 58 61 60 59 61 62 61 60 59 58 58 58 58 57 57 57 57 57 58
216 215 215 215 216 216 214 212 212 213 213 213 212 212 214 215 215 215 214 214 215 214 214 211 208 208 208 211 214 213 210 207 207 208 207 210 211 205 204 206 201 208 227 224 213 211 211 211 215 214 211 214 225 235 247 270 297 315 326 339 360 25 39 38 34 35 39 44 53 57 55 57 60 61 61 60 58 57 57 58 57 55 56 55 54 54
215 214 214 215 216 216 215 213 212 213 213 212 212 213 214 215 216 216 214 214 214 215 214 212 210 208 206 206 210 212 211 212 213 213 211 212 213 210 209 210 204 201 216 225 222 216 212 212 216 218 218 218 225 235 244 257 276 291 304 314 323 337 357 14 19 20 23 30 38 45 49 54 59 60 61 60 59 58 56 56 56 56 55 54 52 51
215 214 213 214 216 216 216 215 213 213 214 212 212 213 214 215 216 216 216 215 215 215 214 213 212 210 207 207 212 214 214 216 217 216 216 215 213 213 212 211 208 204 209 220 224 221 217 215 216 221 223 223 229 238 246 255 266 279 287 296 303 308 317 334 354 1 4 9 18 26 34 48 59 61 61 63 62 60 57 56 55 55 54 53 52 50
214 214 213 213 214 216 216 217 216 215 214 213 213 214 214 215 216 217 216 215 215 215 215 214 214 214 212 212 215 218 219 221 222 221 219 216 214 215 214 211 210 210 212 217 222 223 221 220 220 222 224 226 233 243 251 257 263 270 278 284 290 293 297 303 319 332 338 342 350 1 10 28 53 60 62 65 64 62 59 57 54 53 52 52 51 49
214 214 213 213 213 214 216 217 217 217 216 214 214 215 214 215 216 217 217 216 215 215 215 215 216 217 218 216 217 220 221 222 222 223 222 218 217 220 222 219 213 213 217 218 218 222 225 227 226 224 225 227 234 246 255 260 263 267 273 277 282 286 287 286 294 302 309 317 320 328 341 353 18 46 57 64 65 62 59 58 56 52 50 49 48 48
214 214 213 213 213 213 214 216 217 218 217 215 214 215 215 215 215 217 217 216 214 214 214 215 216 218 220 218 219 221 222 220 219 221 222 219 219 222 227 228 219 214 218 218 216 220 226 230 230 227 225 226 233 244 253 258 262 265 269 273 276 281 283 279 279 282 288 294 299 307 318 325 325 336 14 44 56 58 55 55 55 52 49 47 44 45
213 213 213 213 213 213 214 214 216 217 218 217 215 215 216 215 216 217 218 217 215 214 215 216 216 217 219 219 219 222 223 222 221 221 223 222 221 222 224 224 221 216 217 217 217 221 225 227 228 227 225 224 232 244 252 257 261 265 269 270 271 275 277 274 272 271 273 278 284 290 301 311 314 316 333 351 11 31 39 44 48 49 48 45 41 40
212 213 213 213 213 214 214 214 215 216 218 218 216 215 215 215 216 218 219 217 216 215 215 217 217 218 219 219 218 220 221 221 221 221 222 220 218 219 217 216 217 217 216 216 217 219 222 223 225 227 225 221 229 241 251 259 263 266 268 264 265 270 272 270 268 267 268 267 269 272 280 295 303 307 320 331 338 344 354 9 24 33 39 41 39 36
213 212 212 213 214 214 214 215 215 216 217 217 217 217 216 216 216 218 218 217 215 215 215 216 218 218 218 218 218 220 221 221 220 219 217 216 215 215 214 213 216 218 216 214 214 216 219 221 222 225 224 221 228 238 245 255 262 266 264 255 255 261 262 262 261 263 265 261 255 256 258 268 286 298 311 321 327 331 331 334 345 1 15 25 30 30
214 213 213 213 213 213 213 214 216 217 218 217 217 217 217 217 217 217 218 217 215 215 214 215 216 217 217 217 217 219 220 219 219 218 215 214 215 215 215 216 218 219 216 215 216 213 213 217 221 225 225 223 229 236 241 252 261 263 257 245 245 251 252 252 253 254 256 255 252 250 245 244 253 275 298 312 319 321 319 317 320 327 340 355 7 14
213 214 214 213 213 213 213 214 216 217 218 219 218 217 217 218 218 217 217 216 214 214 214 214 215 216 216 217 217 218 219 218 216 216 215 214 216 217 218 219 220 220 219 219 219 214 211 214 220 226 227 226 227 232 238 248 256 258 248 240 246 255 254 253 254 253 253 253 252 249 244 237 233 242 271 299 310 312 310 308 310 311 313 323 334 345
213 214 213 213 214 214 214 214 216 217 219 220 219 218 218 218 217 217 217 215 213 213 213 214 215 215 215 216 216 215 216 216 214 213 213 211 212 215 215 217 218 218 218 218 217 213 213 217 223 227 229 228 228 232 236 241 249 253 246 242 255 261 253 252 255 255 254 251 249 248 246 239 231 228 238 268 291 299 300 300 301 301 301 302 307 314
213 214 213 212 213 213 213 213 215 216 218 220 220 219 220 219 218 218 218 216 214 214 213 214 215 215 214 215 215 213 213 214 213 214 213 209 209 212 213 214 213 212 213 215 214 214 218 223 227 229 230 229 230 236 240 237 244 251 247 245 256 256 249 252 256 254 252 250 247 244 239 233 231 237 239 243 259 274 284 290 293 294 295 294 294 296
214 215 214 213 213 213 213 213 214 215 216 219 221 220 220 220 220 219 218 216 215 215 214 214 214 215 215 215 216 215 214 214 214 215 215 213 211 212 214 216 217 218 219 218 215 217 223 224 224 226 229 230 231 235 238 232 237 245 241 237 241 237 236 248 255 252 248 248 250 245 238 235 239 250 260 263 260 261 267 275 281 284 288 289 288 288
213 214 214 214 214 214 214 214 214 215 215 218 220 221 220 221 221 221 220 218 216 215 216 215 214 214 215 216 216 217 216 216 215 215 217 217 215 214 216 219 221 223 225 221 214 212 215 218 223 227 229 232 234 236 238 232 231 236 235 235 239 236 235 248 258 254 247 248 254 253 248 249 250 253 267 278 273 268 271 276 279 281 283 286 287 287
214 213 214 213 214 214 215 215 215 215 216 217 219 220 220 220 222 222 221 220 218 217 217 217 215 214 215 216 217 217 218 217 216 216 217 218 218 216 218 220 222 222 224 222 218 215 215 218 226 230 231 233 236 236 236 232 228 229 231 235 238 236 236 247 257 256 248 246 251 251 250 255 258 258 265 276 276 269 269 274 277 279 280 280 281 284
215 215 214 213 213 214 215 216 216 216 217 219 220 221 220 220 221 221 221 222 221 218 217 218 218 216 216 217 217 218 218 218 218 218 218 218 219 218 217 219 222 223 224 223 220 218 217 219 223 225 227 229 231 231 231 228 223 222 225 229 230 227 226 231 243 250 249 248 248 246 244 247 256 261 267 278 280 269 266 273 275 274 274 273 272 272
216 216 215 214 214 214 215 215 216 217 218 219 221 221 221 221 221 221 221 221 221 220 218 219 219 217 217 217 218 218 218 219 220 220 219 219 219 218 217 218 220 223 225 225 223 220 218 219 222 225 227 226 226 229 229 223 219 219 223 226 226 224 220 218 224 235 243 246 247 244 240 240 249 257 262 269 269 262 268 280 282 278 270 265 265 263
217 217 216 215 214 214 214 215 216 218 219 220 220 220 220 222 221 221 222 222 221 221 220 219 219 218 217 218 219 219 218 218 220 220 220 220 220 219 219 219 220 223 225 225 225 223 221 220 221 225 227 225 224 227 225 216 213 216 221 225 225 224 223 222 222 226 232 236 239 239 237 237 247 253 251 251 252 252 261 271 280 284 274 263 262 264
218 218 217 216 215 214 214 215 217 218 220 221 220 219 219 221 221 221 222 222 222 222 221 220 220 219 218 218 219 220 219 219 221 221 220 220 220 220 220 220 221 223 225 225 225 225 224 222 221 222 224 222 222 223 218 211 209 211 219 225 226 224 223 225 227 228 229 231 234 237 235 235 244 249 243 240 242 248 254 259 269 279 277 269 267 269
217 218 217 216 215 214 214 216 217 218 221 222 222 220 219 220 220 220 221 222 222 222 221 221 221 221 220 219 219 220 220 221 222 222 221 221 221 221 221 221 222 223 224 225 225 225 224 223 221 221 221 219 219 218 211 207 208 209 216 225 226 223 222 223 226 228 231 232 234 235 234 235 240 245 242 236 236 240 246 254 262 269 272 273 273 274
217 218 218 216 215 215 215 216 217 218 220 222 223 222 220 220 220 220 220 221 221 221 221 221 221 221 221 221 220 220 221 222 223 224 223 222 222 222 223 223 223 223 224 225 226 226 226 225 222 221 219 218 218 216 210 209 210 209 211 215 218 219 220 221 223 227 231 234 234 232 232 233 236 241 243 242 239 240 245 252 259 263 267 271 273 275
216 217 219 217 216 216 216 217 218 218 219 221 222 222 221 220 220 220 221 221 221 221 221 221 221 221 221 221 221 221 221 222 223 224 224 223 222 223 223 223 224 224 225 226 227 227 228 227 224 221 219 217 218 218 214 213 215 215 214 214 216 221 222 219 219 222 225 226 227 228 229 232 234 238 242 244 245 246 248 252 257 262 265 267 267 268
216 216 218 217 216 216 216 217 218 219 219 221 222 223 222 220 219 220 220 220 221 222 222 221 221 221 221 221 221 221 222 222 223 224 225 224 223 223 223 224 224 224 225 226 227 227 227 227 225 222 219 218 219 221 219 215 215 216 216 217 223 229 230 223 219 220 222 222 222 224 228 232 236 239 243 246 248 249 251 254 257 262 267 267 264 264
218 217 217 218 218 218 217 217 218 219 220 221 223 224 223 221 219 220 221 221 221 222 223 222 222 222 222 222 222 221 221 222 223 225 225 225 224 224 224 224 224 224 224 225 226 226 226 226 225 223 220 219 220 222 222 221 219 217 216 218 224 230 232 229 224 223 225 227 228 229 230 234 239 243 247 250 251 250 252 255 257 260 265 267 265 263
219 218 218 218 218 219 218 219 218 219 220 221 222 224 224 222 220 220 222 222 221 222 223 223 223 223 223 224 224 223 222 222 223 225 226 227 226 225 225 225 225 224 224 225 225 226 226 226 226 225 223 221 221 222 224 225 224 223 221 222 225 226 227 227 226 225 226 230 234 236 237 239 241 244 247 251 252 251 252 252 254 258 263 266 265 262
219 219 219 219 219 219 219 219 220 219 220 221 222 223 224 224 221 220 222 222 222 222 223 223 224 224 224 225 225 225 224 223 223 224 226 228 228 227 226 226 226 226 225 225 225 226 226 226 227 227 226 224 223 224 225 227 227 228 227 227 227 225 223 223 225 227 229 232 235 238 239 240 242 244 247 247 246 249 250 249 251 257 262 265 265 261
219 220 220 220 220 220 220 219 220 220 221 221 222 223 224 224 223 222 222 223 223 222 222 223 223 223 224 225 225 226 226 225 224 224 225 227 229 229 228 227 227 227 227 226 226 226 227 227 227 228 228 227 225 225 226 227 228 229 230 230 230 229 227 227 229 231 234 236 238 239 240 240 241 245 247 245 242 244 248 251 254 258 261 264 265 260
218 220 220 221 221 221 221 220 221 221 222 222 222 223 223 224 224 224 223 222 223 223 223 223 223 224 224 225 225 226 227 227 226 225 225 226 229 230 231 229 228 227 227 227 227 227 228 228 228 228 228 228 227 227 227 228 228 228 230 231 232 233 233 233 233 235 237 239 241 242 242 242 242 245 247 246 245 247 249 252 257 259 260 263 264 257
218 219 220 221 222 222 222 221 222 222 223 224 223 223 223 223 224 226 225 224 222 223 224 224 224 224 224 225 225 226 226 227 227 226 226 226 227 230 231 231 230 229 228 227 228 228 228 229 229 229 229 229 229 229 228 228 228 228 229 230 232 234 235 236 237 238 239 240 242 243 244 244 244 245 246 247 247 249 250 252 254 256 259 262 262 255
218 219 220 221 222 223 222 222 222 223 224 225 225 225 224 224 224 226 227 226 224 223 224 224 224 224 224 224 225 225 225 226 227 226 226 226 227 228 230 231 232 231 229 229 229 229 229 229 229 229 230 230 230 230 229 228 228 228 229 230 232 233 235 236 238 239 240 241 243 244 245 246 246 247 248 248 247 247 248 250 252 254 255 258 257 253
219 220 221 222 223 224 224 223 223 223 224 225 226 226 226 225 224 225 227 227 227 225 224 224 225 225 225 225 225 225 226 226 226 227 226 226 227 228 230 231 233 233 232 231 230 230 230 229 229 229 230 230 230 230 230 229 229 230 231 232 233 233 234 235 237 238 239 241 243 244 245 247 248 249 250 249 248 247 246 248 250 250 251 252 251 248
220 220 221 222 223 224 225 224 224 225 225 226 227 228 227 226 225 225 226 227 228 228 226 225 225 226 226 226 226 226 227 227 227 227 227 227 228 229 230 231 232 233 233 232 232 231 231 231 230 229 229 230 231 231 231 230 231 231 232 233 234 234 234 234 235 236 237 239 241 243 245 246 248 249 250 250 250 249 248 247 246 246 247 249 248 245
221 222 222 223 223 224 225 225 225 225 226 226 227 228 229 228 227 227 227 227 228 229 229 228 227 226 226 226 226 227 227 227 227 227 227 228 228 229 230 230 232 233 234 234 233 232 232 232 231 231 230 230 231 231 231 231 231 231 232 232 233 234 234 235 235 236 237 238 239 241 243 245 246 247 248 249 250 251 251 249 247 246 246 246 246 245
223 223 223 224 224 224 225 225 226 226 226 227 228 229 230 230 229 229 228 228 228 228 229 230 229 228 228 227 227 227 227 228 228 228 228 228 229 229 230 231 231 232 233 234 234 234 233 233 233 232 232 231 231 232 232 232 232 232 232 232 233 234 235 236 236 237 237 238 239 240 241 243 244 245 246 247 248 250 251 252 251 250 248 246 245 245
226 225 224 225 225 225 224 225 225 226 227 227 228 229 230 231 231 231 231 230 230 229 229 230 231 231 230 229 228 228 227 228 228 229 229 229 229 230 230 231 231 232 233 233 234 234 234 234 234 234 234 233 233 233 233 232 232 232 233 233 233 234 235 236 237 238 238 238 239 240 241 242 243 244 245 246 247 249 250 251 252 252 250 248 245 244
231 229 227 227 227 227 226 225 226 226 227 227 228 229 230 231 232 232 232 232 232 231 230 230 231 231 232 231 230 229 228 228 228 229 230 230 231 231 231 232 232 233 233 234 234 234 235 235 235 235 235 235 234 234 234 234 233 233 233 233 234 234 235 236 237 238 239 239 239 240 241 241 242 244 245 246 247 248 250 251 252 252 251 249 247 245
235 234 232 230 230 230 228 227 227 227 227 227 228 229 230 231 232 232 233 233 233 233 232 231 231 231 232 232 232 232 230 229 229 229 230 231 231 232 232 232 233 233 234 235 235 235 235 235 235 235 235 236 236 235 235 235 235 234 234 234 234 234 235 235 236 238 239 240 240 240 241 241 242 243 244 246 247 248 250 250 251 252 251 250 248 246
239 238 237 235 234 233 232 230 229 228 229 229 229 229 230 231 232 233 233 234 234 234 234 233 233 233 233 233 233 233 233 232 231 230 230 231 231 232 233 233 233 234 234 235 236 236 236 236 236 236 236 236 236 236 236 236 236 236 235 235 235 235 235 235 236 237 238 239 240 241 241 242 242 243 244 245 246 248 249 249 250 250 251 250 249 248
246 243 242 240 238 236 235 234 233 231 230 230 230 231 231 231 232 233 234 235 235 235 235 235 235 234 234 234 235 235 234 234 234 233 232 232 232 232 233 233 234 234 235 236 236 237 237 237 237 237 237 237 238 238 237 237 237 237 237 237 236 236 236 236 236 237 238 238 239 240 241 242 243 243 244 244 245 246 248 248 249 249 250 250 250 249
251 249 247 245 243 240 237 236 234 233 232 232 231 232 232 233 233 234 234 235 236 236 236 236 237 236 236 236 236 236 236 236 236 235 235 234 234 234 234 234 234 235 235 236 237 237 238 238 238 238 238 238 238 239 239 239 238 238 238 238 238 237 237 237 237 237 237 238 239 240 241 242 243 243 244 244 245 246 247 248 248 249 249 250 250 249
Height
10909 10913 10918 10923 10925 10927 10932 10940 10948 10952 10956 10959 10963 10968 10974 10979 10983 10986 10989 10992 10998 11002 11006 11008 11011 11015 11017 11019 11022 11024 11024 11024 11025 11026 11028 11030 11031 11031 11032 11033 11033 11034 11034 11035 11035 11035 11036 11036 11036 11036 11036 11036 11035 11034 11033 11032 11031 11029 11028 11027 11027 11027 11026 11026 11025 11024 11023 11022 11021 11019 11018 11017 11017 11016 11014 11013 11011 11010 11009 11008 11007 11005 11004 11002 11001 11000
10904 10908 10912 10915 10918 10921 10929 10938 10943 10946 10949 10954 10958 10963 10970 10975 10980 10983 10984 10990 10996 11000 11003 11007 11010 11013 11015 11018 11021 11022 11023 11023 11024 11026 11027 11028 11030 11030 11032 11032 11033 11033 11034 11034 11035 11036 11036 11036 11037 11037 11037 11037 11036 11036 11035 11034 11033 11032 11031 11029 11029 11028 11028 11028 11027 11027 11026 11025 11024 11023 11022 11021 11020 11018 11017 11015 11013 11012 11011 11010 11009 11007 11006 11004 11003 11002
10899 10901 10905 10909 10912 10917 10926 10934 10937 10940 10945 10951 10955 10960 10965 10971 10975 10977 10980 10987 10992 10995 11001 11006 11009 11011 11013 11017 11018 11018 11020 11022 11023 11024 11026 11027 11028 11029 11031 11032 11032 11033 11033 11034 11035 11036 11037 11037 11037 11038 11038 11037 11037 11037 11036 11035 11034 11033 11033 11031 11030 11029 11029 11029 11029 11029 11028 11028 11027 11026 11025 11024 11022 11020 11019 11018 11016 11015 11014 11013 11011 11009 11008 11006 11005 11004
10891 10893 10898 10903 10905 10912 10922 10927 10931 10935 10942 10947 10950 10954 10959 10964 10968 10971 10976 10982 10985 10989 10996 11001 11004 11007 11010 11013 11013 11013 11016 11019 11020 11022 11024 11025 11026 11028 11029 11031 11031 11032 11033 11033 11034 11036 11037 11037 11038 11038 11038 11038 11038 11037 11037 11036 11036 11035 11034 11033 11032 11031 11029 11029 11029 11029 11029 11029 11028 11027 11026 11024 11023 11022 11021 11020 11018 11017 11016 11015 11013 11011 11010 11009 11008 11007
10880 10884 10891 10896 10899 10906 10915 10921 10925 10930 10937 10942 10945 10949 10954 10958 10962 10967 10972 10975 10979 10985 10991 10995 11000 11004 11007 11009 11009 11010 11014 11015 11017 11020 11022 11023 11025 11026 11028 11029 11031 11031 11032 11033 11033 11035 11036 11037 11038 11038 11038 11038 11038 11038 11038 11037 11037 11036 11035 11034 11033 11032 11031 11030 11029 11028 11029 11028 11028 11027 11026 11025 11024 11023 11022 11021 11020 11019 11018 11016 11015 11013 11012 11011 11010 11009
10871 10878 10886 10891 10894 10901 10910 10915 10919 10924 10931 10938 10941 10944 10949 10954 10958 10961 10964 10969 10975 10982 10987 10992 10997 11001 11004 11005 11006 11009 11012 11012 11014 11018 11020 11021 11023 11024 11026 11028 11029 11030 11031 11032 11033 11034 11035 11036 11037 11038 11038 11039 11039 11039 11038 11038 11038 11037 11036 11036 11035 11034 11033 11032 11030 11029 11029 11028 11028 11028 11027 11026 11025 11024 11023 11022 11021 11020 11019 11018 11017 11016 11014 11013 11013 11012
10864 10874 10881 10885 10889 10896 10904 10910 10913 10919 10925 10932 10936 10939 10945 10949 10951 10954 10959 10965 10972 10978 10983 10988 10993 10998 11001 11002 11003 11006 11008 11010 11012 11015 11017 11019 11020 11022 11025 11027 11028 11029 11030 11031 11032 11034 11034 11035 11037 11038 11038 11039 11039 11039 11039 11039 11038 11038 11037 11037 11036 11035 11035 11034 11033 11031 11030 11029 11029 11029 11028 11027 11026 11025 11024 11023 11022 11021 11020 11020 11019 11018 11017 11016 11015 11014
10859 10869 10874 10879 10884 10891 10898 10905 10908 10913 10919 10924 10930 10935 10938 10940 10942 10948 10955 10962 10968 10974 10978 10984 10989 10994 10997 10998 11000 11002 11005 11007 11010 11012 11015 11017 11018 11020 11023 11026 11027 11028 11029 11030 11031 11032 11033 11034 11035 11037 11037 11038 11039 11039 11039 11039 11039 11039 11038 11038 11037 11037 11036 11035 11034 11033 11032 11031 11030 11030 11029 11028 11027 11026 11025 11024 11024 11023 11022 11021 11021 11020 11019 11018 11017 11016
10853 10863 10868 10872 10879 10885 10892 10898 10900 10904 10911 10917 10923 10928 10931 10933 10937 10944 10952 10957 10962 10968 10974 10980 10985 10989 10992 10994 10996 10999 11001 11003 11006 11010 11013 11015 11017 11018 11021 11024 11026 11027 11028 11029 11030 11031 11032 11032 11034 11035 11036 11037 11038 11038 11039 11039 11039 11039 11039 11039 11039 11038 11037 11036 11036 11035 11034 11033 11032 11031 11030 11030 11029 11028 11027 11026 11026 11025 11024 11023 11022 11022 11021 11020 11020 11019
10847 10855 10860 10866 10873 10878 10883 10888 10892 10898 10904 10910 10917 10922 10925 10927 10932 10940 10948 10952 10956 10962 10969 10976 10981 10984 10987 10989 10992 10996 10998 11000 11004 11007 11010 11012 11014 11017 11019 11022 11024 11026 11027 11027 11028 11029 11030 11031 11032 11033 11035 11036 11037 11037 11038 11038 11039 11039 11039 11039 11039 11039 11038 11037 11036 11036 11035 11034 11033 11032 11031 11031 11030 11029 11028 11028 11027 11026 11025 11025 11024 11023 11023 11022 11022 11021
10838 10846 10852 10859 10865 10868 10874 10880 10887 10893 10897 10903 10911 10915 10917 10920 10925 10932 10939 10945 10951 10957 10964 10971 10976 10979 10982 10984 10988 10991 10995 10998 11001 11004 11007 11009 11012 11014 11017 11019 11021 11024 11025 11026 11026 11027 11028 11029 11031 11032 11033 11034 11035 11036 11037 11037 11038 11038 11039 11039 11039 11039 11039 11038 11037 11036 11035 11035 11034 11033 11032 11032 11031 11030 11029 11029 11028 11027 11027 11026 11026 11025 11024 11024 11023 11023
10826 10836 10845 10851 10855 10860 10867 10873 10880 10884 10888 10896 10903 10906 10910 10914 10919 10925 10933 10941 10947 10953 10959 10965 10970 10974 10977 10980 10983 10987 10992 10995 10998 11001 11004 11007 11009 11012 11014 11016 11018 11020 11023 11024 11024 11025 11026 11027 11029 11030 11032 11033 11034 11035 11035 11036 11037 11037 11038 11038 11039 11039 11039 11039 11038 11037 11036 11035 11035 11034 11033 11032 11032 11031 11030 11029 11029 11028 11028 11027 11027 11026 11026 11025 11025 11024
10818 10828 10836 10842 10847 10854 10861 10867 10874 10877 10880 10889 10895 10899 10905 10911 10916 10923 10931 10938 10943 10947 10954 10960 10965 10969 10973 10976 10979 10983 10987 10991 10995 10998 11001 11004 11007 11009 11010 11012 11015 11017 11020 11021 11022 11023 11024 11025 11027 11028 11030 11031 11032 11033 11034 11035 11036 11036 11037 11038 11038 11038 11039 11039 11038 11038 11037 11036 11035 11035 11034 11033 11032 11032 11031 11030 11030 11029 11029 11028 11028 11028 11027 11027 11026 11026
10810 10819 10826 10832 10839 10849 10856 10862 10868 10871 10876 10884 10890 10894 10901 10907 10912 10919 10926 10932 10937 10943 10949 10955 10960 10964 10968 10972 10976 10979 10983 10987 10991 10995 10998 11002 11004 11005 11007 11009 11012 11015 11017 11019 11020 11021 11022 11023 11025 11027 11029 11030 11031 11032 11033 11034 11035 11035 11036 11037 11037 11038 11038 11038 11038 11038 11037 11037 11036 11035 11035 11034 11033 11033 11032 11032 11031 11030 11030 11029 11029 11029 11028 11028 11027 11027
10803 10811 10819 10825 10833 10842 10850 10856 10862 10867 10873 10879 10883 10889 10896 10901 10906 10913 10918 10922 10928 10936 10943 10948 10955 10959 10963 10969 10973 10975 10979 10983 10987 10991 10994 10997 11000 11003 11005 11007 11010 11013 11015 11017 11018 11020 11021 11021 11023 11024 11026 11028 11029 11030 11031 11032 11033 11034 11035 11036 11036 11037 11038 11038 11038 11038 11038 11037 11036 11036 11035 11035 11034 11034 11033 11033 11033 11032 11031 11030 11030 11029 11029 11029 11029 11028
10796 10804 10812 10821 10829 10837 10842 10848 10856 10861 10865 10871 10878 10885 10890 10895 10901 10904 10904 10909 10920 10930 10937 10943 10949 10953 10957 10965 10971 10972 10974 10979 10982 10985 10989 10993 10997 11000 11003 11005 11008 11010 11012 11013 11015 11017 11018 11019 11020 11022 11024 11025 11027 11028 11029 11030 11031 11033 11034 11035 11036 11037 11037 11038 11038 11038 11038 11037 11037 11036 11036 11035 11035 11034 11034 11034 11034 11033 11032 11032 11031 11030 11030 11030 11030 11029
10788 10797 10807 10815 10822 10828 10833 10840 10848 10853 10856 10863 10871 10877 10881 10889 10895 10894 10893 10905 10920 10928 10934 10939 10944 10947 10952 10961 10967 10968 10970 10975 10979 10982 10987 10991 10995 10998 11001 11004 11006 11008 11009 11010 11012 11014 11015 11016 11017 11019 11021 11023 11024 11025 11027 11028 11029 11031 11032 11034 11035 11036 11037 11037 11038 11038 11037 11037 11037 11036 11036 11035 11035 11035 11035 11035 11035 11034 11034 11033 11032 11032 11031 11031 11031 11031
10784 10793 10802 10810 10815 10821 10827 10834 10840 10845 10848 10856 10864 10869 10874 10881 10885 10884 10889 10905 10918 10924 10929 10934 10939 10943 10948 10956 10960 10961 10966 10971 10976 10980 10984 10987 10992 10996 11000 11002 11003 11005 11007 11008 11009 11011 11011 11013 11015 11017 11019 11020 11022 11024 11025 11027 11028 11029 11031 11033 11034 11035 11036 11036 11037 11037 11037 11037 11037 11036 11036 11036 11035 11035 11035 11035 11035 11035 11035 11035 11034 11033 11033 11032 11032 11032
10782 10789 10796 10802 10807 10814 10823 10830 10834 10837 10840 10848 10857 10863 10868 10873 10876 10878 10886 10899 10910 10917 10923 10927 10932 10938 10943 10948 10952 10955 10961 10968 10973 10976 10978 10982 10988 10992 10997 10999 11000 11001 11003 11004 11006 11008 11010 11012 11014 11015 11016 11018 11021 11022 11024 11025 11026 11028 11029 11031 11033 11034 11034 11034 11035 11036 11036 11036 11036 11036 11036 11035 11035 11035 11035 11035 11036 11036 11036 11036 11035 11035 11034 11033 11033 11033
10777 10783 10789 10793 10798 10808 10817 10823 10827 10831 10835 10842 10848 10853 10859 10864 10868 10873 10881 10893 10903 10909 10914 10918 10922 10927 10932 10938 10943 10949 10958 10964 10969 10973 10976 10980 10984 10988 10993 10995 10996 10999 11000 11001 11003 11006 11009 11010 11011 11012 11014 11017 11020 11021 11023 11024 11025 11027 11028 11029 11031 11032 11032 11033 11033 11034 11034 11035 11036 11036 11035 11035 11035 11035 11035 11035 11036 11036 11036 11036 11036 11035 11035 11034 11034 11033
10770 10776 10782 10788 10795 10804 10812 10817 10822 10827 10832 10835 10838 10844 10850 10853 10859 10866 10872 10882 10892 10899 10905 10909 10912 10917 10925 10932 10939 10949 10956 10960 10965 10971 10975 10978 10981 10984 10989 10992 10994 10996 10996 10998 11001 11004 11005 11007 11008 11010 11012 11015 11017 11019 11021 11022 11023 11025 11025 11027 11028 11030 11031 11032 11032 11033 11033 11034 11035 11035 11035 11035 11034 11034 11034 11034 11035 11036 11036 11036 11036 11036 11035 11035 11034 11034
10761 10765 10773 10783 10791 10798 10806 10812 10817 10821 10823 10825 10830 10838 10840 10842 10851 10856 10860 10871 10883 10891 10898 10902 10905 10914 10923 10928 10936 10944 10946 10950 10958 10964 10967 10971 10972 10974 10980 10986 10989 10990 10991 10994 10999 11001 11003 11005 11007 11007 11009 11011 11013 11015 11018 11020 11021 11022 11023 11025 11027 11028 11029 11030 11031 11032 11033 11033 11034 11035 11035 11035 11034 11033 11033 11033 11034 11034 11035 11035 11035 11035 11035 11035 11035 11035
10754 10758 10768 10778 10784 10789 10796 10801 10804 10809 10814 10817 10823 10829 10831 10836 10844 10848 10854 10868 10880 10885 10891 10896 10901 10910 10917 10921 10926 10931 10934 10941 10951 10956 10959 10962 10963 10966 10973 10979 10982 10982 10985 10991 10996 10999 11001 11003 11006 11006 11006 11007 11010 11013 11016 11017 11018 11020 11022 11023 11023 11024 11026 11027 11028 11030 11031 11032 11033 11034 11034 11034 11034 11033 11032 11032 11032 11033 11033 11034 11034 11035 11035 11035 11035 11035
10748 10754 10764 10773 10776 10779 10784 10788 10793 10800 10808 10810 10812 10816 10822 10831 10838 10843 10852 10864 10873 10879 10884 10890 10897 10905 10911 10914 10919 10924 10929 10936 10944 10949 10954 10957 10960 10966 10971 10973 10974 10976 10981 10988 10995 10998 10999 11001 11003 11002 11001 11003 11007 11010 11013 11015 11016 11018 11020 11017 11015 11016 11019 11022 11025 11027 11029 11031 11031 11032 11032 11033 11033 11032 11032 11031 11031 11032 11032 11033 11033 11034 11034 11035 11035 11035
10739 10747 10756 10764 10769 10772 10776 10781 10788 10796 10800 10799 10798 10805 10817 10827 10831 10838 10849 10858 10867 10875 10880 10885 10892 10898 10903 10908 10914 10919 10924 10930 10937 10942 10946 10951 10956 10962 10964 10965 10967 10970 10975 10984 10991 10994 10995 10997 10999 11000 11000 11000 11004 11008 11012 11013 11014 11015 11015 11013 11011 11012 11015 11019 11023 11025 11027 11029 11030 11031 11031 11031 11032 11031 11031 11031 11030 11031 11031 11032 11033 11033 11034 11034 11035 11035
10733 10739 10745 10753 10761 10766 10770 10776 10784 10789 10791 10788 10787 10797 10811 10819 10824 10833 10845 10854 10862 10870 10877 10882 10888 10893 10898 10904 10909 10913 10916 10923 10929 10934 10938 10943 10949 10955 10956 10957 10960 10963 10968 10975 10983 10988 10989 10990 10993 10995 10996 10997 11002 11008 11011 11012 11012 11012 11012 11013 11013 11014 11015 11019 11023 11024 11026 11027 11029 11030 11031 11030 11030 11030 11030 11030 11029 11029 11030 11031 11032 11032 11032 11033 11034 11034
10726 10731 10737 10746 10754 10760 10766 10774 10780 10783 10783 10782 10783 10793 10805 10811 10817 10829 10840 10848 10856 10866 10873 10877 10883 10890 10895 10899 10903 10906 10909 10917 10923 10926 10930 10934 10940 10946 10950 10952 10955 10958 10961 10966 10973 10980 10983 10985 10986 10987 10989 10993 10999 11005 11007 11007 11008 11009 11010 11011 11012 11012 11014 11017 11022 11024 11025 11025 11026 11028 11028 11028 11028 11028 11028 11028 11028 11027 11027 11028 11029 11030 11031 11031 11031 11032
10718 10724 10733 10741 10749 10756 10763 10769 10772 10773 10774 10774 10777 10789 10799 10803 10812 10824 10833 10839 10848 10858 10866 10870 10878 10886 10890 10892 10895 10898 10904 10912 10916 10918 10922 10927 10932 10938 10942 10946 10949 10952 10955 10958 10964 10971 10977 10980 10981 10982 10986 10990 10995 10999 11001 11004 11006 11006 11006 11006 11008 11009 11010 11012 11015 11019 11021 11022 11023 11024 11024 11024 11025 11025 11026 11027 11026 11025 11024 11025 11026 11027 11028 11028 11028 11029
10712 10718 10727 10734 10741 10750 10757 10760 10761 10761 10761 10761 10766 10780 10791 10797 10809 10821 10827 10833 10841 10850 10859 10865 10871 10878 10882 10886 10889 10891 10898 10903 10902 10905 10912 10919 10924 10930 10934 10938 10942 10945 10948 10952 10956 10962 10969 10974 10976 10979 10983 10987 10990 10993 10996 11000 11002 11001 11000 11001 11003 11006 11008 11009 11011 11012 11013 11016 11018 11019 11020 11021 11021 11022 11023 11024 11024 11022 11021 11021 11022 11023 11023 11024 11024 11026
10705 10712 10720 10727 10734 10744 10750 10751 10752 10752 10751 10752 10760 10774 10785 10792 10803 10814 10820 10826 10834 10843 10852 10858 10863 10868 10874 10879 10881 10884 10889 10891 10889 10894 10903 10908 10914 10920 10924 10928 10933 10937 10941 10945 10949 10954 10961 10967 10971 10974 10978 10982 10985 10988 10991 10994 10995 10995 10995 10996 11000 11004 11006 11008 11009 11009 11010 11012 11014 11015 11016 11017 11018 11019 11019 11020 11020 11019 11017 11016 11017 11018 11020 11021 11023 11024
10698 10704 10710 10718 10728 10738 10741 10740 10742 10744 10745 10748 10757 10769 10778 10784 10793 10804 10810 10817 10826 10834 10843 10850 10855 10861 10866 10869 10871 10874 10878 10882 10884 10888 10894 10899 10905 10911 10916 10921 10926 10931 10934 10938 10942 10947 10953 10959 10965 10969 10973 10977 10980 10983 10986 10988 10989 10991 10992 10992 10995 11000 11003 11004 11004 11005 11007 11009 11010 11012 11013 11014 11015 11015 11016 11017 11017 11016 11014 11013 11014 11015 11017 11019 11022 11024
10692 10696 10701 10711 10721 10728 10729 10729 10731 10734 10737 10742 10750 10760 10770 10778 10787 10795 10802 10809 10816 10823 10831 10838 10843 10849 10854 10858 10861 10864 10869 10875 10877 10879 10885 10892 10897 10902 10907 10914 10920 10924 10928 10931 10936 10940 10945 10951 10957 10963 10967 10971 10974 10977 10979 10981 10982 10984 10984 10985 10989 10993 10996 10998 11000 11001 11003 11004 11006 11008 11008 11009 11011 11011 11012 11013 11014 11013 11012 11012 11013 11014 11016 11018 11020 11022
10682 10687 10693 10703 10712 10716 10719 10721 10723 10727 10731 10735 10739 10748 10758 10769 10779 10786 10793 10801 10807 10812 10818 10824 10829 10835 10840 10846 10851 10856 10862 10866 10867 10869 10875 10883 10889 10894 10899 10905 10911 10916 10920 10923 10927 10931 10936 10942 10949 10955 10959 10963 10966 10969 10971 10973 10974 10975 10976 10978 10982 10985 10987 10990 10994 10996 10998 10999 11000 11001 11002 11004 11006 11007 11008 11009 11010 11010 11010 11010 11012 11013 11014 11017 11018 11019
10674 10680 10686 10695 10702 10705 10709 10712 10716 10722 10726 10728 10732 10739 10747 10759 10771 10778 10783 10792 10797 10801 10807 10813 10819 10824 10829 10835 10840 10845 10851 10855 10857 10860 10866 10874 10881 10885 10890 10896 10901 10906 10910 10914 10918 10922 10927 10932 10938 10945 10950 10953 10956 10959 10962 10964 10964 10966 10969 10973 10976 10977 10979 10983 10987 10990 10992 10993 10993 10994 10996 10998 11001 11003 11005 11006 11007 11007 11007 11008 11009 11010 11011 11014 11016 11017
10669 10676 10682 10687 10692 10695 10699 10705 10711 10716 10719 10722 10727 10730 10737 10753 10768 10772 10775 10782 10788 10791 10797 10804 10809 10814 10819 10823 10826 10832 10839 10845 10850 10854 10859 10864 10872 10877 10881 10886 10890 10895 10900 10904 10908 10912 10917 10922 10928 10934 10939 10943 10946 10949 10952 10954 10956 10959 10962 10965 10968 10971 10972 10976 10980 10983 10985 10986 10986 10988 10990 10993 10995 10998 11001 11004 11004 11003 11003 11004 11005 11006 11008 11010 11012 11015
10660 10668 10675 10679 10683 10687 10693 10700 10705 10708 10712 10715 10719 10722 10730 10746 10761 10765 10766 10773 10778 10783 10789 10796 10801 10806 10810 10813 10817 10823 10831 10838 10843 10848 10851 10856 10863 10868 10872 10875 10879 10884 10889 10893 10898 10902 10907 10912 10917 10923 10928 10933 10936 10939 10942 10945 10949 10952 10955 10957 10961 10965 10966 10968 10971 10974 10976 10978 10979 10981 10984 10987 10989 10992 10997 11001 11001 10999 10998 10999 11001 11002 11004 11006 11008 11011
10651 10659 10666 10670 10673 10678 10685 10692 10697 10701 10705 10708 10712 10717 10725 10738 10750 10755 10757 10761 10767 10774 10781 10786 10791 10797 10800 10804 10808 10815 10824 10832 10837 10841 10845 10849 10853 10857 10861 10865 10869 10873 10878 10883 10888 10892 10896 10901 10907 10912 10917 10922 10927 10930 10934 10937 10940 10943 10946 10949 10953 10957 10960 10961 10963 10965 10967 10969 10971 10973 10976 10979 10982 10985 10990 10995 10997 10995 10992 10993 10996 10998 10999 11001 11004 11006
10644 10651 10656 10661 10665 10670 10678 10684 10689 10694 10697 10700 10706 10714 10721 10729 10737 10743 10747 10750 10755 10763 10769 10772 10778 10785 10789 10794 10800 10808 10817 10824 10829 10834 10837 10840 10844 10846 10849 10853 10857 10861 10866 10872 10877 10881 10886 10891 10897 10902 10907 10912 10917 10922 10926 10929 10931 10933 10936 10939 10943 10947 10950 10952 10954 10956 10958 10961 10963 10966 10968 10972 10975 10978 10982 10987 10990 10990 10988 10988 10990 10993 10994 10996 10999 11001
10637 10642 10647 10652 10657 10664 10671 10677 10682 10686 10688 10693 10701 10708 10714 10720 10725 10729 10733 10738 10744 10752 10757 10761 10768 10775 10780 10785 10792 10799 10807 10813 10818 10825 10830 10833 10834 10834 10834 10838 10843 10848 10854 10860 10866 10871 10876 10880 10886 10892 10896 10901 10907 10913 10917 10919 10922 10924 10927 10930 10933 10936 10939 10943 10945 10948 10950 10952 10955 10957 10960 10963 10967 10970 10974 10977 10979 10981 10983 10984 10986 10988 10990 10992 10994 10996
10628 10633 10639 10644 10649 10656 10663 10669 10675 10679 10683 10688 10694 10699 10704 10711 10716 10718 10720 10728 10737 10744 10747 10753 10760 10765 10770 10776 10782 10788 10794 10799 10805 10814 10821 10823 10822 10819 10818 10822 10828 10835 10843 10850 10855 10859 10865 10870 10876 10882 10886 10890 10896 10902 10907 10910 10912 10915 10918 10920 10923 10926 10930 10933 10936 10939 10941 10943 10946 10948 10950 10954 10957 10961 10965 10968 10970 10973 10975 10978 10981 10983 10985 10987 10989 10990
10622 10627 10632 10636 10641 10647 10654 10661 10667 10672 10676 10681 10685 10689 10694 10703 10709 10709 10710 10718 10728 10732 10735 10742 10748 10751 10756 10762 10767 10772 10777 10782 10792 10802 10808 10809 10807 10805 10805 10809 10814 10823 10833 10841 10845 10849 10855 10861 10867 10872 10876 10880 10884 10890 10895 10899 10902 10905 10908 10911 10914 10918 10921 10925 10928 10930 10932 10934 10936 10939 10941 10944 10948 10952 10956 10959 10962 10965 10968 10971 10975 10978 10981 10982 10983 10984
10617 10621 10625 10630 10634 10640 10646 10653 10660 10665 10669 10673 10674 10678 10684 10693 10698 10700 10702 10708 10714 10718 10724 10730 10734 10737 10742 10748 10754 10759 10764 10772 10781 10789 10792 10793 10793 10794 10796 10800 10805 10813 10823 10831 10835 10839 10845 10850 10856 10861 10865 10868 10872 10877 10883 10888 10892 10896 10898 10901 10905 10909 10912 10915 10918 10921 10923 10925 10927 10930 10932 10935 10939 10942 10945 10949 10953 10957 10960 10964 10968 10972 10974 10976 10977 10978
10611 10615 10619 10623 10627 10633 10639 10646 10653 10658 10662 10664 10666 10669 10674 10680 10686 10690 10694 10698 10702 10707 10714 10718 10722 10727 10733 10738 10744 10750 10755 10762 10770 10775 10778 10781 10784 10787 10790 10794 10798 10804 10811 10817 10823 10828 10833 10838 10843 10848 10852 10856 10859 10865 10871 10877 10881 10885 10888 10891 10894 10898 10902 10905 10908 10911 10914 10917 10919 10921 10924 10926 10929 10933 10936 10939 10943 10947 10951 10956 10960 10964 10967 10969 10971 10972
10605 10609 10612 10615 10619 10625 10631 10637 10643 10648 10651 10654 10656 10658 10662 10667 10673 10679 10682 10685 10690 10696 10702 10706 10711 10717 10723 10728 10734 10738 10743 10749 10755 10761 10765 10770 10773 10775 10778 10783 10788 10793 10798 10803 10809 10816 10821 10825 10830 10835 10839 10843 10848 10853 10859 10864 10869 10873 10877 10880 10883 10887 10891 10894 10897 10900 10904 10906 10909 10911 10914 10917 10920 10923 10927 10930 10933 10936 10941 10945 10950 10954 10958 10961 10964 10966
10600 10603 10606 10608 10612 10617 10622 10628 10632 10636 10641 10644 10647 10648 10651 10656 10661 10666 10669 10674 10680 10686 10691 10696 10701 10706 10712 10717 10721 10725 10729 10735 10742 10747 10752 10756 10759 10761 10765 10770 10777 10782 10786 10790 10796 10802 10807 10812 10817 10822 10827 10832 10836 10841 10846 10851 10856 10860 10864 10868 10872 10876 10880 10883 10886 10890 10893 10896 10898 10901 10904 10907 10910 10914 10918 10921 10924 10926 10930 10935 10939 10943 10947 10952 10955 10958
10594 10596 10599 10601 10605 10609 10614 10618 10622 10626 10630 10635 10638 10641 10644 10647 10651 10656 10660 10665 10670 10676 10682 10687 10690 10694 10698 10703 10707 10711 10718 10724 10730 10735 10739 10743 10746 10748 10752 10757 10764 10769 10774 10777 10781 10786 10792 10798 10804 10810 10816 10821 10825 10828 10832 10837 10842 10847 10852 10857 10862 10866 10869 10872 10874 10878 10882 10885 10888 10890 10894 10897 10900 10903 10907 10911 10913 10916 10919 10923 10927 10931 10936 10941 10946 10949
10588 10590 10593 10596 10599 10602 10606 10611 10614 10617 10620 10624 10628 10631 10633 10636 10639 10642 10646 10650 10656 10663 10670 10675 10678 10681 10684 10688 10693 10700 10707 10714 10720 10723 10726 10729 10732 10735 10739 10745 10751 10757 10761 10764 10767 10772 10778 10784 10791 10798 10804 10808 10811 10814 10818 10823 10829 10835 10840 10845 10849 10853 10856 10860 10862 10865 10869 10873 10876 10879 10883 10886 10889 10892 10896 10899 10902 10904 10908 10912 10915 10919 10924 10929 10934 10939
10583 10585 10588 10591 10593 10595 10599 10603 10606 10608 10611 10615 10619 10621 10623 10624 10626 10629 10633 10637 10643 10649 10656 10661 10665 10667 10670 10674 10681 10688 10696 10703 10708 10711 10714 10716 10719 10722 10727 10733 10739 10744 10748 10750 10753 10758 10764 10772 10779 10785 10790 10792 10796 10800 10805 10811 10817 10823 10827 10831 10835 10839 10844 10848 10851 10854 10857 10860 10864 10868 10871 10875 10878 10881 10885 10888 10890 10892 10896 10900 10904 10908 10912 10917 10922 10927
10578 10581 10583 10585 10587 10589 10592 10594 10597 10600 10603 10606 10610 10612 10613 10614 10616 10619 10622 10626 10631 10636 10641 10646 10651 10655 10658 10662 10668 10675 10682 10689 10694 10698 10701 10704 10707 10710 10715 10721 10727 10731 10734 10736 10739 10744 10752 10759 10766 10770 10774 10777 10781 10787 10793 10799 10804 10808 10812 10817 10822 10826 10831 10835 10838 10842 10845 10848 10852 10856 10860 10864 10867 10870 10874 10877 10879 10881 10885 10889 10893 10897 10900 10905 10910 10915
10574 10576 10577 10577 10579 10582 10584 10586 10589 10592 10595 10598 10601 10602 10603 10605 10607 10609 10613 10616 10619 10623 10628 10633 10638 10643 10647 10651 10656 10663 10669 10675 10680 10684 10688 10691 10695 10699 10703 10708 10714 10718 10720 10721 10724 10729 10738 10745 10750 10754 10758 10763 10768 10774 10781 10785 10789 10794 10799 10804 10808 10812 10816 10821 10825 10829 10833 10836 10840 10843 10847 10851 10855 10858 10862 10865 10868 10870 10873 10877 10881 10885 10889 10892 10897 10902
10568 10569 10569 10570 10571 10573 10574 10576 10579 10582 10585 10588 10590 10592 10593 10595 10596 10600 10603 10606 10608 10612 10616 10621 10626 10631 10635 10639 10644 10650 10656 10661 10665 10669 10673 10678 10683 10688 10692 10697 10701 10703 10704 10705 10709 10715 10722 10728 10732 10737 10744 10750 10756 10761 10766 10770 10775 10781 10786 10790 10794 10798 10803 10808 10812 10816 10819 10823 10827 10831 10835 10839 10842 10845 10849 10852 10855 10858 10861 10864 10868 10873 10877 10880 10883 10887